Weather History for Caransebes, Romania

Change the Weather History Date:

Thursday, December 26, 2013

  Actual Average Record
Temperature  
Mean Temperature 48 °F -  
Max Temperature 55 °F - - ()
Min Temperature 40 °F - - ()
Degree Days  
Heating Degree Days 18    
Moisture  
Dew Point 34 °F    
Average Humidity 44    
Maximum Humidity 56    
Minimum Humidity 35    
Precipitation  
Precipitation 0.00 in - - ()
Sea Level Pressure  
Sea Level Pressure 29.83 in    
Wind  
Wind Speed 11 mph ()    
Max Wind Speed 20 mph    
Max Gust Speed -    
Visibility 12.0 miles    
Events      
T = Trace of Precipitation, MM = Missing Value Source: Averaged Metar Reports

Daily Weather History Graph

Daily Weather History Graph

Search for Another Location

Airport:

Trip Planner

Search our weather history database for the weather conditions in past years. The results will help you decide how hot, cold, wet, or windy it might be!

Date:

Astronomy

Dec. 26, 2013 Rise Set
Actual Time 8:09 AM EET 4:53 PM EET
Civil Twilight 7:35 AM EET 5:27 PM EET
Nautical Twilight 6:58 AM EET 6:05 PM EET
Astronomical Twilight 6:22 AM EET 6:41 PM EET
Moon 1:05 AM EET (12/26) 12:31 PM EET (12/26)
Length of Visible Light 9h 52m
Length of Day
8h 43m
Last Quarter, 41% of the Moon is Illuminated
Dec 26
Last Quarter
Jan 1
New
Jan 8
First Quarter
Jan 16
Full
Jan 24
Last Quarter

Hourly Weather History & Observations

Time (EET) Temp. Dew Point Humidity Pressure Visibility Wind Dir Wind Speed Gust Speed Precip Events Conditions
12:00 AM 44 °F 31 °F 48% 29.97 in 12 mi SSE 11.2 mph - -  
1:00 AM 43 °F 31 °F 51% 29.96 in 12 mi SSE 11.2 mph - -  
2:00 AM 42 °F 31 °F 54% 29.94 in 12 mi SSE 8.9 mph - -  
3:00 AM 42 °F 31 °F 56% 29.93 in 12 mi ESE 4.5 mph - -  
4:00 AM 43 °F 31 °F 53% 29.92 in 12 mi SSE 13.4 mph - -  
5:00 AM 44 °F 30 °F 46% 29.90 in 12 mi SSE 13.4 mph - -  
6:00 AM 45 °F 32 °F 49% 29.90 in 12 mi SSE 11.2 mph - -  
7:00 AM 45 °F 31 °F 46% 29.88 in 12 mi SSE 13.4 mph - -  
8:00 AM 46 °F 31 °F 44% 29.88 in 12 mi South 11.2 mph - -   Scattered Clouds
9:00 AM 46 °F 31 °F 45% 29.86 in 12 mi SSE 13.4 mph - -   Scattered Clouds
10:00 AM 49 °F 33 °F 43% 29.84 in 12 mi SSE 13.4 mph - -   Clear
11:00 AM 53 °F 35 °F 37% 29.83 in 12 mi South 13.4 mph - -   Clear
12:00 PM 55 °F 35 °F 35% 29.82 in 12 mi South 17.9 mph - -   Clear
1:00 PM 56 °F 36 °F 35% 29.82 in 12 mi South 15.7 mph - -   Clear
2:00 PM 54 °F 36 °F 38% 29.77 in 12 mi SSE 17.9 mph - -   Clear
3:00 PM 53 °F 36 °F 42% 29.75 in 12 mi South 15.7 mph - -   Clear
4:00 PM 53 °F 36 °F 40% 29.75 in 12 mi SSE 13.4 mph - -   Clear
5:00 PM 52 °F 35 °F 41% 29.73 in 12 mi South 15.7 mph - -   Clear
6:00 PM 51 °F 35 °F 42% 29.73 in 12 mi South 17.9 mph - -   Clear
7:00 PM 51 °F 35 °F 43% 29.74 in 12 mi SSE 11.2 mph - -   Overcast
8:00 PM 52 °F 35 °F 41% 29.74 in 12 mi SSE 13.4 mph - -   Mostly Cloudy
9:00 PM 52 °F 37 °F 44% 29.74 in 12 mi SSE 15.7 mph - -   Mostly Cloudy
10:00 PM 51 °F 37 °F 47% 29.75 in 12 mi SSE 13.4 mph - -   Mostly Cloudy
11:00 PM 51 °F 36 °F 46% 29.76 in 12 mi South 20.1 mph - -   Mostly Cloudy